Date String (YYYY-MM-DD hh:mm:ss) UTC,Instrument flags,absolute air pressure of the measurement (hPa),sample flow rate (lpm),inlet stack bypass flow (lpm),air temperature of the measurement (°C),ambient temperature measured by the external sensor (°C),aerosol sample conditioner tube jacket temperature (°C),OPC LED temperature (°C),internal box temperature (°C),relative humidity of the measurement (%),span deviation,mass concentration of particles derived from Lorenz-Mie calculation of OPC scattering (μg/m³),mass concentration of particles derived from Lorenz-Mie calculation of OPC scattering (μg/m³),mass concentration of particles derived from Lorenz-Mie calculation of OPC scattering (μg/m³)
DateTimeUTC,F1_M11,P_M11,Q1_M11,Q2_M11,T1_M11,T2_M11,T3_M11,T4_M11,T5_M11,U1_M11,ZSPAN_M11,X2_M11,X0_M11,X1_M11
2023-07-04 00:00:00,SystemResetWarning,0829.4,5.00,000.00,028.7,027.0,000.0,037.0,030.4,24.0,0000.0,0005.06,0013.52,0004.45
2023-07-04 00:01:00,SystemResetWarning,0829.4,4.99,000.00,028.7,027.3,000.0,037.0,030.5,23.5,0000.0,0005.06,0012.95,0004.43
2023-07-04 00:02:00,SystemResetWarning,0829.4,4.99,000.00,028.8,027.4,000.0,037.0,030.5,23.4,0000.0,0005.05,0012.62,0004.42
2023-07-04 00:03:00,SystemResetWarning,0829.4,4.99,000.00,028.8,026.0,000.0,037.0,030.3,24.5,0000.0,0005.05,0012.64,0004.41
2023-07-04 00:04:00,SystemResetWarning,0829.4,5.01,000.00,028.7,024.7,000.0,036.9,030.1,24.8,0000.0,0005.06,0011.55,0004.40
2023-07-04 00:05:00,SystemResetWarning,0829.5,5.01,000.00,028.7,024.8,000.0,036.8,030.0,25.1,0000.0,0005.05,0010.77,0004.40
2023-07-04 00:06:00,SystemResetWarning,0829.5,4.99,000.00,028.6,025.2,000.0,036.9,029.9,26.3,0000.0,0005.06,0011.02,0004.39
2023-07-04 00:07:00,SystemResetWarning,0829.6,4.99,000.00,028.6,025.7,000.0,036.9,030.0,26.4,0000.0,0005.06,0011.79,0004.38
2023-07-04 00:08:00,SystemResetWarning,0829.6,5.00,000.00,028.6,026.2,000.0,036.9,030.2,24.9,0000.0,0005.11,0011.92,0004.39
2023-07-04 00:09:00,SystemResetWarning,0829.6,5.01,000.00,028.6,026.6,000.0,037.0,030.3,25.1,0000.0,0005.14,0012.70,0004.38
2023-07-04 00:10:00,SystemResetWarning,0829.6,5.00,000.00,028.7,027.0,000.0,037.0,030.4,25.0,0000.0,0005.16,0014.36,0004.38
2023-07-04 00:11:00,SystemResetWarning,0829.7,5.00,000.00,028.7,027.3,000.0,037.0,030.5,25.3,0000.0,0005.15,0014.77,0004.37
2023-07-04 00:12:00,SystemResetWarning,0829.7,5.01,000.00,028.8,027.5,000.0,037.1,030.5,24.9,0000.0,0005.15,0015.14,0004.37
2023-07-04 00:13:00,SystemResetWarning,0829.6,4.97,000.00,028.8,026.2,000.0,037.0,030.3,24.4,0000.0,0005.20,0015.34,0004.38
2023-07-04 00:14:00,SystemResetWarning,0829.6,5.01,000.00,028.7,025.5,000.0,036.9,030.2,24.7,0000.0,0005.21,0014.91,0004.38
2023-07-04 00:15:00,SystemResetWarning,0829.6,5.01,000.00,028.7,025.7,000.0,036.9,030.1,24.4,0000.0,0005.23,0015.17,0004.39
2023-07-04 00:16:00,SystemResetWarning,0829.6,5.00,000.00,028.7,026.1,000.0,037.0,030.1,25.1,0000.0,0005.27,0015.69,0004.40
2023-07-04 00:17:00,SystemResetWarning,0829.7,5.00,000.00,028.7,026.5,000.0,037.0,030.3,23.8,0000.0,0005.27,0015.27,0004.41
2023-07-04 00:18:00,SystemResetWarning,0829.7,5.00,000.00,028.7,026.8,000.0,037.0,030.4,23.6,0000.0,0005.25,0014.74,0004.41
2023-07-04 00:19:00,SystemResetWarning,0829.7,4.99,000.00,028.8,027.2,000.0,037.1,030.5,23.6,0000.0,0005.24,0014.83,0004.42
2023-07-04 00:20:00,SystemResetWarning,0829.7,4.99,000.00,028.8,027.4,000.0,037.1,030.5,23.3,0000.0,0005.28,0015.75,0004.43
2023-07-04 00:21:00,SystemResetWarning,0829.6,5.00,000.00,028.8,026.1,000.0,037.0,030.4,23.1,0000.0,0005.27,0014.27,0004.44
2023-07-04 00:22:00,SystemResetWarning,0829.6,5.01,000.00,028.7,024.7,000.0,036.9,030.2,24.1,0000.0,0005.32,0014.45,0004.45
2023-07-04 00:23:00,SystemResetWarning,0829.7,5.02,000.00,028.7,024.7,000.0,036.9,030.1,23.8,0000.0,0005.34,0015.16,0004.46
2023-07-04 00:24:00,SystemResetWarning,0829.6,4.99,000.00,028.6,025.0,000.0,036.9,029.9,24.0,0000.0,0005.33,0015.83,0004.47
2023-07-04 00:25:00,SystemResetWarning,0829.7,5.00,000.00,028.6,025.5,000.0,036.9,030.0,23.0,0000.0,0005.37,0015.94,0004.47
2023-07-04 00:26:00,SystemResetWarning,0829.7,5.01,000.00,028.6,026.0,000.0,037.0,030.1,22.2,0000.0,0005.39,0015.82,0004.48
2023-07-04 00:27:00,SystemResetWarning,0829.7,4.99,000.00,028.6,026.5,000.0,037.0,030.2,21.3,0000.0,0005.32,0015.59,0004.48
2023-07-04 00:28:00,SystemResetWarning,0829.7,4.98,000.00,028.7,026.9,000.0,037.0,030.3,21.1,0000.0,0005.30,0015.41,0004.48
2023-07-04 00:29:00,SystemResetWarning,0829.7,5.00,000.00,028.7,027.2,000.0,037.0,030.4,22.0,0000.0,0005.33,0015.21,0004.49
2023-07-04 00:30:00,SystemResetWarning,0829.7,5.01,000.00,028.8,027.5,000.0,037.1,030.5,22.3,0000.0,0005.33,0014.83,0004.49
2023-07-04 00:31:00,SystemResetWarning,0829.7,5.00,000.00,028.8,027.3,000.0,037.1,030.5,22.9,0000.0,0005.31,0013.71,0004.51
2023-07-04 00:32:00,SystemResetWarning,0829.7,4.98,000.00,028.8,025.7,000.0,037.0,030.3,22.7,0000.1,0005.36,0013.73,0004.53
2023-07-04 00:33:00,SystemResetWarning,0829.7,5.02,000.00,028.7,024.6,000.0,036.9,030.1,22.4,0000.1,0005.34,0013.33,0004.54
2023-07-04 00:34:00,SystemResetWarning,0829.7,5.01,000.00,028.6,024.8,000.0,036.9,030.0,23.0,0000.0,0005.33,0012.46,0004.55
2023-07-04 00:35:00,SystemResetWarning,0829.8,4.99,000.00,028.6,025.3,000.0,036.9,030.0,23.5,0000.0,0005.33,0012.28,0004.56
2023-07-04 00:36:00,SystemResetWarning,0829.8,5.00,000.00,028.6,025.7,000.0,036.9,030.0,23.8,0000.0,0005.30,0013.00,0004.58
2023-07-04 00:37:00,SystemResetWarning,0829.8,5.00,000.00,028.6,026.2,000.0,037.0,030.2,23.7,0000.0,0005.29,0013.94,0004.58
2023-07-04 00:38:00,SystemResetWarning,0829.9,4.98,000.00,028.6,026.6,000.0,037.0,030.3,23.5,0000.0,0005.34,0014.44,0004.59
2023-07-04 00:39:00,SystemResetWarning,0829.9,5.00,000.00,028.7,027.0,000.0,037.0,030.4,23.4,0000.0,0005.37,0014.95,0004.59
2023-07-04 00:40:00,SystemResetWarning,0829.9,5.01,000.00,028.7,027.3,000.0,037.1,030.5,23.2,0000.0,0005.36,0014.85,0004.60
2023-07-04 00:41:00,SystemResetWarning,0830.1,4.99,000.00,028.8,027.3,000.0,037.1,030.5,23.6,0000.0,0005.37,0014.63,0004.60
2023-07-04 00:42:00,SystemResetWarning,0830.0,4.98,000.00,028.8,025.9,000.0,037.0,030.3,23.8,0000.0,0005.36,0014.47,0004.59
2023-07-04 00:43:00,SystemResetWarning,0830.0,5.01,000.00,028.7,025.4,000.0,036.9,030.2,24.2,0000.0,0005.33,0014.22,0004.57
2023-07-04 00:44:00,SystemResetWarning,0830.0,5.01,000.00,028.7,025.7,000.0,036.9,030.1,24.7,0000.0,0005.28,0014.55,0004.56
2023-07-04 00:45:00,SystemResetWarning,0830.0,4.99,000.00,028.6,026.1,000.0,037.0,030.2,26.4,0000.0,0005.31,0016.42,0004.55
2023-07-04 00:46:00,SystemResetWarning,0830.1,4.99,000.00,028.7,026.5,000.0,037.0,030.3,24.0,0000.0,0005.31,0016.86,0004.55
2023-07-04 00:47:00,SystemResetWarning,0830.1,5.01,000.00,028.7,026.8,000.0,037.0,030.4,23.2,0000.0,0005.31,0016.09,0004.54
2023-07-04 00:48:00,SystemResetWarning,0830.1,5.01,000.00,028.7,027.2,000.0,037.1,030.5,23.0,0000.0,0005.35,0015.86,0004.54
2023-07-04 00:49:00,SystemResetWarning,0830.1,4.99,000.00,028.8,027.2,000.0,037.1,030.5,23.0,0000.0,0005.32,0016.98,0004.50
2023-07-04 00:50:00,SystemResetWarning,0830.1,4.99,000.00,028.8,025.8,000.0,037.0,030.4,22.1,0000.0,0005.27,0016.42,0004.45
2023-07-04 00:51:00,SystemResetWarning,0830.0,5.02,000.00,028.7,025.4,000.0,036.9,030.3,21.2,0000.0,0005.17,0016.28,0004.37
2023-07-04 00:52:00,SystemResetWarning,0830.0,5.00,000.00,028.7,025.6,000.0,036.9,030.2,20.9,0000.0,0005.08,0016.28,0004.29
2023-07-04 00:53:00,SystemResetWarning,0830.0,4.99,000.00,028.7,026.0,000.0,037.0,030.2,20.5,0000.0,0004.99,0017.23,0004.21
2023-07-04 00:54:00,SystemResetWarning,0830.0,5.00,000.00,028.7,026.4,000.0,037.0,030.3,20.9,0000.0,0004.86,0017.14,0004.11
2023-07-04 00:55:00,SystemResetWarning,0830.0,4.99,000.00,028.7,026.8,000.0,037.1,030.4,20.6,0000.0,0004.75,0016.37,0004.00
2023-07-04 00:56:00,SystemResetWarning,0830.0,4.99,000.00,028.8,027.1,000.0,037.1,030.5,20.5,0000.0,0004.63,0014.71,0003.90
2023-07-04 00:57:00,SystemResetWarning,0830.0,4.99,000.00,028.8,027.4,000.0,037.1,030.6,20.0,0000.0,0004.52,0013.45,0003.80
2023-07-04 00:58:00,SystemResetWarning,0830.0,5.00,000.00,028.8,026.7,000.0,037.1,030.5,20.2,0000.0,0004.43,0013.63,0003.70
2023-07-04 00:59:00,SystemResetWarning,0829.9,5.00,000.00,028.8,024.9,000.0,036.9,030.2,20.7,0000.0,0004.27,0013.19,0003.59
